Regional Weather Roundup
Issued by NWS Wakefield, VA

Home | Current Version | Previous Version | Graphics & Text | Print | Product List | Glossary On
Versions: 1 2 3 4 5 6 7 8 9 10 11 12 13 14 15 16 17 18 19 20 21 22 23 24 25 26 27 28 29 30 31 32 33 34 35 36 37 38 39 40 41 42 43 44 45 46 47 48 49 50
000
ASUS41 KAKQ 190610
RWRAKQ

REGIONAL WEATHER ROUNDUP
NATIONAL WEATHER SERVICE WAKEFIELD VA
200 AM EDT FRI SEP 19 2014

Note: "fair" indicates few or no clouds below 12,000 feet with no
significant weather and/or obstructions to visibility. * = Denotes
station may not report precipitation (e.g., rain,snow,etc.),
thunder or fog.

VAZ042-051-052>054-056-190700-
NORTHERN VIRGINIA

CITY           SKY/WX    TMP DP  RH WIND       PRES   REMARKS
WASH NATIONAL  CLEAR     66  60  81 NE3       30.13R
DULLES         CLEAR     57  53  86 NW7       30.13R
FORT BELVOIR   CLEAR     57  57 100 CALM      30.13R FOG
QUANTICO       CLEAR     62  59  90 NW6       30.13R
FREDERICKSBRG* CLEAR     60  60 100 CALM      30.11S
STAFFORD*      CLEAR     55  55 100 CALM      30.16R FOG
WARRENTON      PTCLDY    54  54 100 CALM      30.12R FOG
CULPEPER*      PTCLDY    55  55 100 CALM      30.13S FOG
MANASSAS*      CLEAR     55  55 100 CALM      30.13R
LEESBURG*      CLEAR     55  55 100 CALM      30.15R
WINCHESTER     PTCLDY    52  46  82 NW5       30.15R
FRONT ROYAL*   CLEAR     54  50  87 CALM      30.14R
LURAY*         PTCLDY    61  52  72 N6        30.15R
$$

VAZ048-049-060>072-079>083-190700-
CENTRAL AND SOUTH CENTRAL VIRGINIA...AND NORTH CENTRAL NORTH CAROLINA

CITY           SKY/WX    TMP DP  RH WIND       PRES   REMARKS
RICHMOND       CLOUDY    64  58  80 CALM      30.11R
CHESTERFIELD*  CLOUDY   N/A N/A N/A CALM      30.11S
PETERSBURG*    CLOUDY    59  57  94 CALM      30.11S
HANOVER        CLOUDY    59  58  96 CALM      30.12R
TAPPAHANNOCK*  CLEAR     57  55  94 CALM      30.12R FOG
CHARLOTTSVILLE MOCLDY    61  59  93 CALM      30.12R
ORANGE*        MOCLDY    59  57  94 CALM      30.14R FOG
LOUISA*        CLOUDY    61  59  94 CALM      30.11R FOG
FARMVILLE*     CLOUDY    64  64 100 CALM      30.09R
CREWE*         CLOUDY    63  60  90 CALM      30.10S
FORT PICKETT*  CLOUDY    64  59  85 CALM      30.10S
LUNENBURG*     MOCLDY    63  60  91 CALM      30.10R
SOUTH HILL*    CLOUDY    64  63  94 CALM      30.16R
LAWRENCEVILLE* CLOUDY    62  61  95 CALM      30.10S
ROANOKE RAPIDS CLOUDY    59  59 100 CALM      30.10R
RALEIGH        MOCLDY    68  59  73 S5        30.09R
$$

VAZ088>098-190700-
SOUTHEAST VIRGINIA

CITY           SKY/WX    TMP DP  RH WIND       PRES   REMARKS
NORFOLK        MOCLDY    67  58  72 CALM      30.10R
VIRGINIA BEACH MOCLDY    65  57  75 CALM      30.09R
NORFOLK NAVAL  CLOUDY    67  59  75 CALM      30.11R
WEST POINT*    CLEAR     59  56  91 CALM      30.13R
NEWPORT NEWS   PTCLDY    66  60  81 N3        30.10R
LANGLEY AFB    PTCLDY    64  61  91 W2        30.10R
FORT EUSTIS    CLEAR     65  62  89 CALM      30.09R
WILLIAMSBURG*  CLEAR     64  61  88 CALM      30.11R
HR EXEC AP*    MOCLDY    57  54  88 CALM      30.12R
FRANKLIN*      CLOUDY    61  57  88 CALM      30.10R
WAKEFIELD      CLOUDY    62  59  90 CALM      30.10S
$$

VAZ020-022-025-037-045-190700-
WEST CENTRAL AND SOUTHWEST VIRGINIA

CITY           SKY/WX    TMP DP  RH WIND       PRES   REMARKS
STAUNTON*      CLOUDY    63  52  69 N5        30.16R
HOT SPRINGS VA CLOUDY    54  42  65 E7        30.21R
LYNCHBURG      CLOUDY    64  62  93 N6        30.13R
DANVILLE       MOCLDY    66  63  90 E3        30.09R
SOUTH BOSTON*  NOT AVBL
MARTINSVILLE   CLOUDY    65  65 100 CALM      30.12R FOG
ROANOKE        MOCLDY    63  60  90 CALM      30.13R
BLACKSBURG     CLOUDY    61  61 100 CALM      30.15S
DUBLIN*        MOCLDY    58  58  98 CALM      30.15R
MARION*        CLOUDY    61  57  88 CALM      30.16S
HILLSVILLE*    CLOUDY    60  58  93 E6        30.14S
RICHLANDS*     MOCLDY    60  56  88 NE8       30.13S
WISE*          CLEAR     55  54  94 CALM      30.15S
ABINGDON*      CLEAR     60  56  85 CALM      30.11S
$$

MDZ021>025-VAZ099-100-190700-
SOUTHERN MARYLAND AND THE DELMARVA PENINSULA

CITY           SKY/WX    TMP DP  RH WIND       PRES   REMARKS
PATUXENT RIVER CLEAR     57  55  93 W3        30.11R
BAY BRIDGE APT   N/A     59  57  94 CALM      30.12R
LEONARDTOWN    CLEAR     55  54  94 CALM      30.13R
DOVER          CLEAR     59  56  88 W3        30.09R
GEORGETOWN     PTCLDY    59  55  87 CALM      30.12R
EASTON         CLEAR     59  59 100 CALM      30.15R
CAMBRIDGE        N/A     59  55  88 CALM      30.11R
SALISBURY      CLOUDY    64  58  80 CALM      30.11R
OCEAN CITY     CLOUDY    61  56  83 CALM      30.11R
WALLOPS ISLAND CLOUDY    63  59  87 N3        30.11S
ACCOMACK*      CLOUDY    57  54  88 CALM      30.11R
$$

NCZ012>017-030>032-190700-
EASTERN NORTH CAROLINA

CITY           SKY/WX    TMP DP  RH WIND       PRES   REMARKS
ELIZABETH CITY CLEAR     60  58  92 CALM      30.09R
AHOSKIE*       PTCLDY    57  56  96 CALM      30.10R
EDENTON*       CLEAR     60  59  96 CALM      30.09S
CURRITUCK*     MOCLDY    65  59  80 CALM      30.10R
KILL DEVIL HLS CLEAR     70  57  64 E3        30.08R
MANTEO         CLEAR     68  58  70 NE5       30.09R
CAPE HATTERAS  CLEAR     67  61  81 NE6       30.06S
TARBORO*       PTCLDY    59  57  95 CALM      30.10R
GOLDSBORO      CLEAR     64  63  98 CALM      30.07R
WASHINGTON     CLEAR     60  57  91 CALM      30.09S
GREENVILLE     CLEAR     63  59  88 CALM      30.10S
NEW BERN       CLEAR     67  59  75 E3        30.08S
WILMINGTON     MOCLDY    65  62  90 NE9       30.04S
$$

VAZ048-190700-
ELSEWHERE

CITY           SKY/WX    TMP DP  RH WIND       PRES   REMARKS
HARRISBURG PA  PTCLDY    56  49  77 NW3       30.16R
BALTIMORE      CLEAR     55  54  96 CALM      30.13R
ANNAPOLIS      CLEAR     65  63  93 N3        30.11S FOG
ANDREWS AFB    CLEAR     58  58  99 CALM      30.12R
WILMINGTON DE  CLEAR     57  53  86 N9        30.14R
PHILADELPHIA   PTCLDY    62  49  62 N14       30.13R
WILDWOOD NJ*   PTCLDY    57  50  77 CALM      30.12R
ATLANTIC CITY  CLEAR     56  53  90 W3        30.11R
HENDERSON NC   MOCLDY    64  56  76 SE3       30.10R
GREENSBORO     CLOUDY    68  62  81 SE6       30.08R
ROCKY MOUNT    CLEAR     60  58  92 CALM      30.09S
FAYETTEVILLE   CLOUDY    66  63  90 NE6       30.05S
CHARLOTTE      CLOUDY    69  64  84 E8        30.06R
$$

VAZ100-190700-
MARINE

STATION/POSITION TIME  TEMP    WIND        PRES    WAVE   SWELL
                       AIR SEA DIR/SP/G            HT/PER HT/PER
                 (UTC) (F)     (DEG/KT/KT) (MB)    (FT/S) (FT/S)
44066 TX TWR #4  0600   69 72  330/  6/  8 1019.0R   3/10   2/10
CAPE MAY NJ      0600   69 75  280/  7/ 10 1018.9R
LEWES DE         0600   63 73  250/  5/  5 1019.2R
15NM E FENWICK I 0600   71 72              1019.3R   3/10
OCEAN-CITY-INLET 0600   66 72  340/  3/  4 1019.0S
WACHAPREAGUE VA  0600   62 74   CALM  /  1 1019.4R
THOMAS POINT MD  0600   67 74  340/  5/  6 1020.7R
GOOSES REEF MD   0600   69     170/  4/  4 1020.1R
COVE POINT MD    0600   68     230/  1/  2 1019.5R
SOLOMONS ISLAND  0600      76                N/A
BISHOPS HEAD MD  0600   69 73  120/  5/  6 1019.0R
PINEY POINT MD   0600           60/  5/  5   N/A
POTOMAC MD       0600   71     360/  4/  4 1018.8R
CAMBRIDGE MD     0600   64 74   CALM  /  1 1019.3R
LEWISETTA VA     0600   65 74  240/  2/  3 1019.2R
RAPPAHANNOCK LGT 0600          130/  5/  5 1019.9R
STINGRAY PT      0600   72     180/  6/  8   N/A
YORK RVR RNG VA  0600   71     210/  5/  6 1018.8R
YORKTOWN VA      0600   67 76  230/  3/  4 1018.9R
JAMESTOWN VA     0600   67     210/  4/  6   N/A
DOMINION TERM VA 0600   70     170/  4/  5 1019.2R
KIPTOPEKE VA     0600      79   90/  3/  4   N/A
CHES BAY BRIDGE  0600   71 75  110/  5/  8 1018.6R
CAPE HENRY VA    0600   71     120/  7/ 10 1017.9R
CHESAPEAKE LGHT  0500   71     100/  9/ 10 1019.4R
WILLOUBY STN VA  0600   70      30/  2/  3 1017.9R
S CRANEY ISL VA  0600           CALM  /  1 1018.8R
CAPE HENRY BUOY  0600      75                N/A     3/11   2/11
1ST LANDING BUOY 0600   72     120/  8/ 10 1018.7R
CAPE CHARLES BUO 0600      74                N/A     3/ 5   3/ 5
OFFSHORE WE BUOY 0600      74                N/A     3/10   3/10
64NM E OF VA BCH 0600   72 73   60/ 12/ 14 1018.5R   4/10   3/10
DUCK PIER NC     0600   72 75   90/ 12/ 13 1018.0R
44100 DUCK FRF   0600      74                N/A     4/12   2/12
44056 DUCK FRF   0600                        N/A     3/13   2/13
OREGON INLET NC  0600   71 74   40/  7/ 12 1018.4S
HATTERAS NC      0600   72 77   60/  7/ 10 1018.4R
DIAMOND SHLS NC  0600   73      30/ 14/ 17 1017.4R   4/ 8   3/ 8
CAPE LOOKOUT NC  0500   76      60/ 14/ 17 1017.4R
$$


USA.gov is the U.S. government's official web portal to all federal, state and local government web resources and services.